Regional Weather Roundup
Issued by NWS Lake Charles, LA

Home | Current Version | Previous Version | Text Only | Print | Product List | Glossary On
Versions: 1 2 3 4 5 6 7 8 9 10 11 12 13 14 15 16 17 18 19 20 21 22 23 24 25 26 27 28 29 30 31 32 33 34 35 36 37 38 39 40 41 42 43 44 45 46 47 48 49 50
000
ASUS44 KLCH 251510
RWRLCH
REGIONAL WEATHER ROUNDUP
NATIONAL WEATHER SERVICE LAKE CHARLES LA
1000 AM CDT THU AUG 25 2016

Note: "fair" indicates few or no clouds below 12,000 feet with no
significant weather and/or obstructions to visibility.


ACROSS SOUTHEAST TEXAS

CITY           SKY/WX    TMP DP  RH WIND       PRES   REMARKS
BEAUMONT       SUNNY     87  77  72 N8        30.08S
BEAUMONT CITY  FAIR      86  77  73 N3        30.10S
ORANGE         MOSUNNY   83  77  83 N3        30.11S
JASPER           N/A     80  77  92 CALM      30.13S
$$

ACROSS CENTRAL LOUISIANA

CITY           SKY/WX    TMP DP  RH WIND       PRES   REMARKS
LEESVILLE      MOSUNNY   85  75  72 SE3       30.10S
FULLERTON      FAIR      87  76  69 CALM      30.08F
ALEXANDRIA INT SUNNY     84  76  76 CALM      30.08F
ESLER FIELD    SUNNY     84  78  82 CALM      30.10F
DERIDDER       FAIR      85  78  78 CALM      30.12S
OAKDALE        MOSUNNY   86  77  74 NE3       30.10S
OPELOUSAS      FAIR      83  77  81 E3        30.10S
$$

ACROSS SOUTHWEST AND SOUTH CENTRAL LOUISIANA

CITY           SKY/WX    TMP DP  RH WIND       PRES   REMARKS
SULPHUR        MOSUNNY   87  77  73 NE6       30.10S
LAKE CHARLES   MOSUNNY   86  78  77 NE6       30.09S
CHENNAULT INT  PTSUNNY   86  81  84 NE5       30.10S HX 102
CAMERON PHI    MOSUNNY   86  79  79 NE9       30.08R
DEQUINCY       PTSUNNY   84  78  82 CALM      30.10S
JENNINGS       NOT AVBL
LAFAYETTE      CLOUDY    85  82  91 VRB3      30.09F HX 102
NEW IBERIA     CLOUDY    86  79  79 E6        30.09F
ABBEVILLE        N/A     83  81  94 NE3       30.10S
PATTERSON      MOSUNNY   86  80  82 E5        30.09F HX 101
SALT POINT       N/A     88  79  74 E5        30.07S HX 103
$$

SELECTED SITES ACROSS THE REGION

CITY           SKY/WX    TMP DP  RH WIND       PRES   REMARKS
HOUSTON BUSH   PTSUNNY   86  77  74 SE5       30.08S
HOUSTON HOBBY  PTSUNNY   85  77  77 E5        30.07S
GALVESTON      MOSUNNY   86  77  74 E8        30.08S
COLLEGE STAT   CLOUDY    82  78  88 S7        30.10S
CONROE         MOSUNNY   83  77  82 CALM      30.10S
HUNTSVILLE     MOSUNNY   84  75  74 SW5       30.10S
LUFKIN         SUNNY     83  75  77 SW3       30.10S
SHREVEPORT     CLOUDY    84  78  82 SW5       30.11R
MONROE         SUNNY     85  79  82 CALM      30.12S
NATCHEZ MS     SUNNY     86  73  66 S5        30.13R
BATON ROUGE    MOSUNNY   86  78  77 VRB6      30.11S
N.O. INTL ARPT MOSUNNY   88  78  72 NE9       30.10S HX 101
SLIDELL        MOSUNNY   87  79  76 E7        30.11R HX 101
$$

MARINE REPORTS

STATION/POSITION TIME  SKY/WX   TEMP    WIND        PRES    VSBY
                                AIR SEA DIR/SP/G
                 (UTC)          (F)     (DEG/KT/KT) (MB)    (MI)
BUOY 30 S HIGH I 1450            85 86   50/  6/  8 1018.6R
WVE H/P(F/S)=  1/ 5

SEA RIM ST PARK  1500            86      80/  5/  7 1019.3R
PORT ARTHUR      1400               87   40/  5/  7 1018.9R
SABINE PASS N    1400            83 88   30/  7/  7 1020.2R
TEXAS POINT      NOT AVBL
CALCASIEU PASS   1400            83 87   60/  7/  9 1018.0F
LK CHARLES BEACH 1400            81 82              1019.6R
MARSH ISLAND     1400            85                   N/A
FRESH WATER LOCK 1400            82 92   30/  5/  7 1019.5F
AMERADA PASS     1400            83 85   70/  4/  7 1018.8S
$$



USA.gov is the U.S. government's official web portal to all federal, state and local government web resources and services.